M I D A S
Marine Information and Data Acquisition System
Tripno 702 of the Zeeleeuw from 2004-01-22 07:48:36 to 2004-01-22 22:54:13
Back to CruiseResearch ActivitiesStationsMapUnderway DataData graphs

EquipmentUnitsComments
TimeDGPSUTC
LatitudeDGPSDM.mWGS84
LongitudeDGPSDM.mWGS84
SpeedMeteo Stationm/sRelative wind speed
DirectionMeteo StationdegRelative wind direction
TemperatureMeteo Stationdeg CelciusAir temperature
PressureMeteo StationPaAtmospheric pressure
HumidityMeteo Station%Relative humidity
Missing or incorrect values are displayed as -999
Metereological data collected by the RV Zeeleeuw from 2004-01-22 07:48:36 to 2004-01-22 22:54:13
                                                                                    Next 1000 lines
Time Latitude Longitude Speed Direction Temperature Pressure Humidity
2004-01-22 07:48:42 51°13.594 2°56.103 4 112 3.1 101840 94
2004-01-22 07:48:48 51°13.596 2°56.099 3.3 64 3.1 101840 94
2004-01-22 07:48:52 51°13.597 2°56.097 2.6 73 3.1 101840 94
2004-01-22 07:48:58 51°13.599 2°56.092 2.8 70 3.1 101840 94
2004-01-22 07:49:04 51°13.6 2°56.087 2.3 73 3.1 101840 94
2004-01-22 07:49:09 51°13.602 2°56.082 1.9 63 3.1 101840 94
2004-01-22 07:49:13 51°13.603 2°56.078 2.3 93 3.1 101840 94
2004-01-22 07:49:18 51°13.604 2°56.073 1.7 75 3.1 101840 94
2004-01-22 07:49:24 51°13.606 2°56.067 1.4 84 3.1 101840 94
2004-01-22 07:49:29 51°13.608 2°56.061 1.4 112 3.1 101840 94
2004-01-22 07:49:34 51°13.609 2°56.055 1.4 109 3.1 101840 94
2004-01-22 07:49:38 51°13.61 2°56.051 2.4 105 3.1 101840 94
2004-01-22 07:49:44 51°13.613 2°56.043 2.6 110 3.1 101840 94
2004-01-22 07:49:49 51°13.614 2°56.037 2.7 141 3.1 101840 94
2004-01-22 07:49:53 51°13.616 2°56.031 3.4 115 3.1 101840 94
2004-01-22 07:49:58 51°13.617 2°56.025 2.8 120 3.1 101840 94
2004-01-22 07:50:04 51°13.619 2°56.016 2.6 120 3.1 101840 94
2004-01-22 07:50:09 51°13.621 2°56.009 2.3 154 3.1 101840 94
2004-01-22 07:50:14 51°13.623 2°56.002 2.8 137 3.1 101840 94
2004-01-22 07:50:18 51°13.624 2°55.997 3.8 122 3.1 101840 94
2004-01-22 07:50:24 51°13.627 2°55.988 3.3 113 3.1 101840 94
2004-01-22 07:50:29 51°13.629 2°55.981 4.2 112 3.1 101840 94
2004-01-22 07:50:33 51°13.631 2°55.975 6.1 120 3.1 101850 94
2004-01-22 07:50:38 51°13.633 2°55.967 5.1 114 3.1 101850 94
2004-01-22 07:50:44 51°13.636 2°55.958 4.7 102 3.1 101840 94
2004-01-22 07:50:49 51°13.638 2°55.95 3.9 115 3.1 101840 94
2004-01-22 07:50:53 51°13.64 2°55.943 3.3 105 3.1 101850 94
2004-01-22 07:50:58 51°13.643 2°55.935 2.5 77 3.1 101850 94
2004-01-22 07:51:04 51°13.646 2°55.925 2.7 103 3.1 101850 94
2004-01-22 07:51:09 51°13.649 2°55.916 3.5 108 3.1 101850 94
2004-01-22 07:51:14 51°13.651 2°55.907 4.8 102 3.1 101840 94
2004-01-22 07:51:18 51°13.653 2°55.901 2.9 95 3.1 101840 94
2004-01-22 07:51:24 51°13.656 2°55.89 3.2 87 3.1 101840 94
2004-01-22 07:51:29 51°13.659 2°55.881 1.9 133 3.1 101840 94
2004-01-22 07:51:33 51°13.661 2°55.874 1.2 153 3.1 101850 94
2004-01-22 07:51:38 51°13.663 2°55.865 2.3 149 3.1 101850 94
2004-01-22 07:51:44 51°13.666 2°55.854 2.5 142 3.1 101850 94
2004-01-22 07:51:48 51°13.668 2°55.846 3.4 135 3.1 101850 94
2004-01-22 07:51:53 51°13.67 2°55.838 5.2 136 3.1 101850 94
2004-01-22 07:51:58 51°13.671 2°55.829 5.1 147 3.1 101850 94
2004-01-22 07:52:02 51°13.673 2°55.822 5.1 139 3.1 101850 94
2004-01-22 07:52:08 51°13.675 2°55.811 3.6 130 3.1 101850 94
2004-01-22 07:52:13 51°13.676 2°55.803 3.9 125 3.1 101840 94
2004-01-22 07:52:18 51°13.677 2°55.795 3.3 118 3.1 101840 94
2004-01-22 07:52:23 51°13.679 2°55.787 3.5 113 3.1 101850 94
2004-01-22 07:52:28 51°13.679 2°55.78 3.3 113 3.1 101850 94
2004-01-22 07:52:32 51°13.68 2°55.776 2.9 103 3.1 101850 94
2004-01-22 07:52:38 51°13.681 2°55.77 3.9 135 3.1 101850 94
2004-01-22 07:52:42 51°13.681 2°55.767 3.7 111 3.1 101850 94
2004-01-22 07:52:48 51°13.682 2°55.764 4.8 151 3.1 101850 94
2004-01-22 07:52:52 51°13.682 2°55.762 4.6 153 3.1 101850 94
2004-01-22 07:52:58 51°13.683 2°55.761 5.7 132 3.1 101850 94
2004-01-22 07:53:04 51°13.684 2°55.761 6.2 132 3.1 101850 94
2004-01-22 07:53:08 51°13.685 2°55.761 5.9 143 3.1 101850 94
2004-01-22 07:53:12 51°13.686 2°55.762 5.6 145 3.1 101850 94
2004-01-22 07:53:18 51°13.688 2°55.764 4.6 141 3.1 101850 94
2004-01-22 07:53:22 51°13.689 2°55.765 5 142 3.1 101840 94
2004-01-22 07:53:28 51°13.692 2°55.767 3.9 177 3.1 101840 94
2004-01-22 07:53:32 51°13.695 2°55.768 3.1 178 3.1 101850 94
2004-01-22 07:53:38 51°13.698 2°55.769 3.9 178 3.1 101850 94
2004-01-22 07:53:42 51°13.701 2°55.769 5 180 3.1 101850 94
2004-01-22 07:53:48 51°13.706 2°55.769 4.4 217 3.1 101850 94
2004-01-22 07:53:52 51°13.709 2°55.768 5.8 235 3.1 101850 94
2004-01-22 07:53:58 51°13.715 2°55.766 4.5 230 3.1 101850 94
2004-01-22 07:54:02 51°13.72 2°55.764 4.6 243 3.1 101850 94
2004-01-22 07:54:08 51°13.726 2°55.758 5.3 260 3.1 101850 94
2004-01-22 07:54:12 51°13.73 2°55.753 4.1 248 3.1 101860 94
2004-01-22 07:54:18 51°13.737 2°55.746 4.7 274 3.1 101860 94
2004-01-22 07:54:22 51°13.741 2°55.741 2.9 250 3.1 101850 94
2004-01-22 07:54:28 51°13.747 2°55.732 2 254 3.1 101850 94
2004-01-22 07:54:32 51°13.752 2°55.726 2 255 3.1 101860 94
2004-01-22 07:54:38 51°13.759 2°55.716 3 262 3.1 101860 94
2004-01-22 07:54:42 51°13.763 2°55.71 3 277 3.1 101860 94
2004-01-22 07:54:48 51°13.771 2°55.699 4.1 227 3.1 101860 94
2004-01-22 07:54:52 51°13.776 2°55.692 4.3 249 3.1 101850 94
2004-01-22 07:54:58 51°13.784 2°55.681 2.8 279 3.1 101850 94
2004-01-22 07:55:03 51°13.791 2°55.672 1.9 252 3.1 101850 94
2004-01-22 07:55:08 51°13.799 2°55.663 1 240 3.1 101850 94
2004-01-22 07:55:13 51°13.807 2°55.654 1 246 3.1 101850 94
2004-01-22 07:55:18 51°13.815 2°55.646 1.2 282 3.1 101850 94
2004-01-22 07:55:23 51°13.824 2°55.637 0.9 287 3.1 101860 94
2004-01-22 07:55:28 51°13.833 2°55.63 0.5 308 3.1 101860 94
2004-01-22 07:55:33 51°13.842 2°55.622 0.6 291 3.1 101850 94
2004-01-22 07:55:38 51°13.851 2°55.615 0.7 284 3.1 101850 94
2004-01-22 07:55:43 51°13.861 2°55.608 1.1 311 3.1 101850 94
2004-01-22 07:55:48 51°13.87 2°55.601 2 254 3.1 101850 94
2004-01-22 07:55:52 51°13.878 2°55.595 2.2 261 3.1 101850 94
2004-01-22 07:55:58 51°13.89 2°55.586 1.7 267 3.1 101850 94
2004-01-22 07:56:02 51°13.897 2°55.58 1.7 240 3.1 101850 94
2004-01-22 07:56:08 51°13.909 2°55.572 1.9 296 3.1 101850 94
2004-01-22 07:56:12 51°13.917 2°55.566 2.1 278 3.1 101850 94
2004-01-22 07:56:18 51°13.929 2°55.557 1.2 249 3.1 101850 94
2004-01-22 07:56:23 51°13.939 2°55.549 0.9 250 3.1 101850 94
2004-01-22 07:56:28 51°13.949 2°55.542 1.4 336 3.1 101850 94
2004-01-22 07:56:32 51°13.957 2°55.537 1.2 338 3.1 101850 94
2004-01-22 07:56:38 51°13.97 2°55.528 2 286 3.1 101850 94
2004-01-22 07:56:42 51°13.978 2°55.523 2.1 282 3.1 101860 94
2004-01-22 07:56:48 51°13.99 2°55.514 3.4 284 3.1 101860 94
2004-01-22 07:56:52 51°13.999 2°55.509 3.1 284 3.1 101850 94
2004-01-22 07:56:58 51°14.011 2°55.5 3.6 268 3.1 101850 94
2004-01-22 07:57:02 51°14.02 2°55.495 2.9 261 3.1 101850 94
2004-01-22 07:57:08 51°14.032 2°55.486 2 243 3.1 101850 94
2004-01-22 07:57:12 51°14.04 2°55.48 1.7 224 3.1 101850 94
2004-01-22 07:57:18 51°14.053 2°55.471 2 262 3.1 101850 94
2004-01-22 07:57:23 51°14.063 2°55.463 4.7 273 3.1 101850 94
2004-01-22 07:57:28 51°14.074 2°55.455 2.2 221 3.1 101850 94
2004-01-22 07:57:32 51°14.083 2°55.449 2.7 228 3.1 101850 94
2004-01-22 07:57:38 51°14.096 2°55.439 3.5 271 3.1 101850 94
2004-01-22 07:57:43 51°14.108 2°55.431 2.9 279 3.1 101850 94
2004-01-22 07:57:48 51°14.119 2°55.423 3.9 271 3.1 101850 94
2004-01-22 07:57:52 51°14.129 2°55.416 3.6 250 3.1 101850 94
2004-01-22 07:57:58 51°14.144 2°55.405 3.2 254 3.1 101850 94
2004-01-22 07:58:02 51°14.154 2°55.397 2.8 263 3.1 101850 94
2004-01-22 07:58:08 51°14.169 2°55.385 3.7 228 3.1 101850 94
2004-01-22 07:58:12 51°14.179 2°55.376 2.6 227 3.1 101850 94
2004-01-22 07:58:18 51°14.193 2°55.361 2 346 3.1 101850 94
2004-01-22 07:58:22 51°14.203 2°55.351 2 348 3.1 101850 94
2004-01-22 07:58:28 51°14.218 2°55.336 2.1 348 3.1 101850 94
2004-01-22 07:58:32 51°14.227 2°55.325 2.3 327 3.1 101860 94
2004-01-22 07:58:38 51°14.241 2°55.307 3.7 334 3.1 101860 94
2004-01-22 07:58:43 51°14.252 2°55.291 3.6 334 3.1 101850 94
2004-01-22 07:58:48 51°14.263 2°55.274 5.9 301 3.1 101850 94
2004-01-22 07:58:52 51°14.271 2°55.26 5.9 303 3.1 101850 94
2004-01-22 07:58:58 51°14.282 2°55.238 3.9 300 3.1 101850 94
2004-01-22 07:59:02 51°14.29 2°55.223 4.3 286 3.1 101850 94
2004-01-22 07:59:08 51°14.301 2°55.199 5 286 3.1 101850 94
2004-01-22 07:59:12 51°14.309 2°55.183 4.4 39 3.1 101850 94
2004-01-22 07:59:18 51°14.32 2°55.159 4.8 333 3.1 101850 94
2004-01-22 07:59:23 51°14.329 2°55.139 4.4 333 3.1 101840 94
2004-01-22 07:59:28 51°14.339 2°55.119 4.5 307 3.1 101840 94
2004-01-22 07:59:32 51°14.347 2°55.103 4.8 334 3.1 101850 94
2004-01-22 07:59:38 51°14.36 2°55.079 5.7 319 3.1 101850 94
2004-01-22 07:59:42 51°14.368 2°55.063 5.9 312 3.1 101840 94
2004-01-22 07:59:48 51°14.381 2°55.04 7.4 302 3.1 101840 94
2004-01-22 07:59:52 51°14.391 2°55.024 5 293 3.1 101850 94
2004-01-22 07:59:58 51°14.405 2°55 4.9 310 3.1 101850 94
2004-01-22 08:00:02 51°14.415 2°54.985 5.3 300 3.1 101840 94
2004-01-22 08:00:08 51°14.43 2°54.962 5.5 300 3.1 101840 94
2004-01-22 08:00:13 51°14.443 2°54.943 4.1 306 3.1 101840 94
2004-01-22 08:00:18 51°14.456 2°54.925 4.5 286 3.1 101840 94
2004-01-22 08:00:23 51°14.47 2°54.906 4.1 291 3.1 101840 94
2004-01-22 08:00:28 51°14.484 2°54.888 4.5 303 3.1 101840 94
2004-01-22 08:00:33 51°14.498 2°54.872 4.7 290 3.1 101840 94
2004-01-22 08:00:38 51°14.512 2°54.855 3.7 281 3.1 101840 94
2004-01-22 08:00:43 51°14.527 2°54.839 3.3 276 3.1 101840 94
2004-01-22 08:00:48 51°14.542 2°54.823 3.3 259 3.1 101840 94
2004-01-22 08:00:52 51°14.554 2°54.81 4.5 252 3.1 101840 94
2004-01-22 08:00:58 51°14.572 2°54.791 4.2 270 3.1 101840 94
2004-01-22 08:01:02 51°14.585 2°54.777 4.2 271 3.1 101840 94
2004-01-22 08:01:08 51°14.603 2°54.757 3.9 278 3.1 101840 94
2004-01-22 08:01:13 51°14.618 2°54.74 3.9 266 3.2 101840 94
2004-01-22 08:01:18 51°14.632 2°54.722 5.1 271 3.2 101840 94
2004-01-22 08:01:23 51°14.647 2°54.704 4.2 272 3.2 101840 94
2004-01-22 08:01:28 51°14.661 2°54.684 4.4 296 3.2 101840 94
2004-01-22 08:01:33 51°14.675 2°54.666 4.3 309 3.2 101840 94
2004-01-22 08:01:38 51°14.689 2°54.647 5.6 285 3.2 101840 94
2004-01-22 08:01:42 51°14.701 2°54.631 5.3 292 3.2 101840 94
2004-01-22 08:01:48 51°14.718 2°54.609 5.7 277 3.2 101840 94
2004-01-22 08:01:52 51°14.73 2°54.594 5.6 286 3.2 101840 94
2004-01-22 08:01:58 51°14.748 2°54.572 5.5 282 3.2 101840 94
2004-01-22 08:02:02 51°14.76 2°54.557 4.8 279 3.2 101840 94
2004-01-22 08:02:08 51°14.778 2°54.536 4.7 280 3.2 101840 94
2004-01-22 08:02:13 51°14.793 2°54.519 3.9 278 3.2 101830 94
2004-01-22 08:02:18 51°14.808 2°54.501 3.8 281 3.2 101830 94
2004-01-22 08:02:22 51°14.82 2°54.487 4.3 288 3.2 101840 94
2004-01-22 08:02:28 51°14.838 2°54.465 4.3 287 3.2 101840 94
2004-01-22 08:02:32 51°14.85 2°54.451 5.3 293 3.2 101840 94
2004-01-22 08:02:38 51°14.867 2°54.428 5.8 287 3.2 101840 94
2004-01-22 08:02:42 51°14.879 2°54.413 5.7 288 3.2 101840 94
2004-01-22 08:02:48 51°14.896 2°54.391 5.5 281 3.2 101840 94
2004-01-22 08:02:52 51°14.907 2°54.375 4.8 279 3.2 101830 94
2004-01-22 08:02:58 51°14.924 2°54.353 5.1 274 3.2 101830 94
2004-01-22 08:03:02 51°14.935 2°54.337 5.3 274 3.3 101830 94
2004-01-22 08:03:08 51°14.95 2°54.313 4.6 280 3.3 101830 94
2004-01-22 08:03:13 51°14.963 2°54.293 4.7 282 3.2 101830 94
2004-01-22 08:03:18 51°14.976 2°54.274 5.5 286 3.2 101830 94
2004-01-22 08:03:22 51°14.987 2°54.258 6.2 283 3.2 101830 94
2004-01-22 08:03:28 51°15.002 2°54.235 5.7 286 3.2 101830 94
2004-01-22 08:03:33 51°15.015 2°54.215 5.1 286 3.3 101830 94
2004-01-22 08:03:38 51°15.029 2°54.196 5.8 279 3.3 101830 94
2004-01-22 08:03:42 51°15.04 2°54.182 6 284 3.3 101840 94
2004-01-22 08:03:48 51°15.058 2°54.162 5.4 260 3.3 101840 94
2004-01-22 08:03:52 51°15.07 2°54.151 2.7 257 3.3 101840 94
2004-01-22 08:03:57 51°15.086 2°54.138 3.5 236 3.3 101840 94
2004-01-22 08:04:04 51°15.109 2°54.123 2.9 249 3.3 101830 94
2004-01-22 08:04:08 51°15.123 2°54.116 1.8 234 3.3 101830 94
2004-01-22 08:04:12 51°15.136 2°54.109 2.1 275 3.3 101840 94
2004-01-22 08:04:18 51°15.157 2°54.098 2.8 248 3.3 101840 94
2004-01-22 08:04:22 51°15.17 2°54.091 2.3 251 3.3 101840 94
2004-01-22 08:04:28 51°15.191 2°54.08 2.6 282 3.3 101840 94
2004-01-22 08:04:32 51°15.204 2°54.072 3.4 276 3.3 101840 94
2004-01-22 08:04:38 51°15.224 2°54.058 3.9 279 3.3 101840 94
2004-01-22 08:04:43 51°15.24 2°54.044 4.1 282 3.3 101840 94
2004-01-22 08:04:48 51°15.256 2°54.03 4.1 279 3.3 101840 94
2004-01-22 08:04:52 51°15.269 2°54.018 4.2 282 3.3 101850 94
2004-01-22 08:04:58 51°15.287 2°54 5.2 293 3.3 101850 94
2004-01-22 08:05:03 51°15.303 2°53.984 6.5 269 3.3 101840 94
2004-01-22 08:05:08 51°15.319 2°53.969 6.1 273 3.3 101840 94
2004-01-22 08:05:13 51°15.335 2°53.954 5.7 262 3.3 101830 94
2004-01-22 08:05:18 51°15.351 2°53.939 5.7 262 3.3 101830 94
2004-01-22 08:05:22 51°15.364 2°53.928 3.7 258 3.4 101840 94
2004-01-22 08:05:28 51°15.384 2°53.913 3.6 246 3.4 101840 94
2004-01-22 08:05:32 51°15.398 2°53.903 3.4 258 3.4 101830 94
2004-01-22 08:05:38 51°15.419 2°53.889 4.1 262 3.4 101830 94
2004-01-22 08:05:43 51°15.436 2°53.877 3.9 261 3.4 101840 94
2004-01-22 08:05:48 51°15.453 2°53.865 4 248 3.4 101840 94
2004-01-22 08:05:52 51°15.466 2°53.856 3.5 255 3.4 101840 94
2004-01-22 08:05:58 51°15.487 2°53.841 3 254 3.4 101840 94
2004-01-22 08:06:02 51°15.5 2°53.83 3.5 249 3.4 101840 94
2004-01-22 08:06:08 51°15.52 2°53.813 3 255 3.4 101840 94
2004-01-22 08:06:13 51°15.537 2°53.799 3.1 252 3.4 101840 94
2004-01-22 08:06:18 51°15.554 2°53.784 3.5 262 3.4 101840 94
2004-01-22 08:06:22 51°15.567 2°53.772 3.1 258 3.4 101840 94
2004-01-22 08:06:27 51°15.584 2°53.757 5.2 259 3.4 101840 94
2004-01-22 08:06:32 51°15.601 2°53.743 5.1 261 3.4 101840 94
2004-01-22 08:06:38 51°15.621 2°53.726 4.7 261 3.4 101840 94
2004-01-22 08:06:43 51°15.638 2°53.713 3.6 258 3.4 101840 94
2004-01-22 08:06:48 51°15.655 2°53.699 2.5 254 3.4 101840 94
2004-01-22 08:06:52 51°15.669 2°53.689 3.7 259 3.4 101830 94
2004-01-22 08:06:58 51°15.689 2°53.673 3 261 3.4 101830 94
2004-01-22 08:07:02 51°15.703 2°53.662 3.1 252 3.4 101840 94
2004-01-22 08:07:08 51°15.724 2°53.646 3.6 252 3.4 101840 94
2004-01-22 08:07:12 51°15.738 2°53.635 3.2 255 3.4 101830 94
2004-01-22 08:07:18 51°15.759 2°53.618 4.6 268 3.4 101830 94
2004-01-22 08:07:22 51°15.773 2°53.607 3.7 267 3.4 101840 94
2004-01-22 08:07:28 51°15.793 2°53.59 5.6 271 3.4 101840 94
2004-01-22 08:07:32 51°15.807 2°53.579 4.8 284 3.4 101840 94
2004-01-22 08:07:38 51°15.827 2°53.563 4.6 259 3.4 101840 94
2004-01-22 08:07:42 51°15.841 2°53.552 5.2 254 3.4 101830 94
2004-01-22 08:07:48 51°15.862 2°53.535 4.5 253 3.4 101830 94
2004-01-22 08:07:52 51°15.875 2°53.524 4.3 247 3.5 101830 94
2004-01-22 08:07:58 51°15.895 2°53.506 3.8 251 3.5 101830 94
2004-01-22 08:08:00 51°15.902 2°53.501 3.4 257 3.5 101830 94
2004-01-22 08:08:08 51°15.929 2°53.477 5.4 259 3.5 101830 94
2004-01-22 08:08:12 51°15.942 2°53.465 4.3 258 3.4 101830 94
2004-01-22 08:08:18 51°15.963 2°53.448 3.6 257 3.4 101830 94
2004-01-22 08:08:22 51°15.977 2°53.437 2.8 255 3.4 101830 94
2004-01-22 08:08:28 51°15.997 2°53.419 3.5 252 3.4 101830 94
2004-01-22 08:08:32 51°16.01 2°53.408 4.3 246 3.4 101830 94
2004-01-22 08:08:38 51°16.031 2°53.391 4.2 244 3.4 101830 94
2004-01-22 08:08:42 51°16.044 2°53.379 3.2 254 3.4 101830 94
2004-01-22 08:08:48 51°16.065 2°53.363 4.6 262 3.4 101830 94
2004-01-22 08:08:52 51°16.078 2°53.351 4 257 3.4 101830 94
2004-01-22 08:08:58 51°16.098 2°53.334 3.5 263 3.4 101830 94
2004-01-22 08:09:02 51°16.112 2°53.322 3.7 273 3.4 101840 94
2004-01-22 08:09:08 51°16.132 2°53.305 3.9 265 3.4 101840 94
2004-01-22 08:09:12 51°16.146 2°53.293 4.4 260 3.4 101830 94
2004-01-22 08:09:17 51°16.162 2°53.279 4 259 3.4 101830 94
2004-01-22 08:09:23 51°16.183 2°53.262 4.8 282 3.5 101830 94
2004-01-22 08:09:28 51°16.2 2°53.248 6 269 3.5 101830 94
2004-01-22 08:09:32 51°16.213 2°53.236 5.6 263 3.5 101830 94
2004-01-22 08:09:38 51°16.234 2°53.22 2.9 259 3.5 101830 94
2004-01-22 08:09:42 51°16.248 2°53.209 4.2 274 3.4 101830 94
2004-01-22 08:09:48 51°16.268 2°53.193 3.9 271 3.4 101830 94
2004-01-22 08:09:52 51°16.281 2°53.182 4.1 281 3.5 101830 94
2004-01-22 08:09:58 51°16.302 2°53.165 4.5 270 3.5 101830 94
2004-01-22 08:10:02 51°16.316 2°53.154 3.7 277 3.5 101830 94
2004-01-22 08:10:08 51°16.336 2°53.138 5.5 268 3.5 101830 94
2004-01-22 08:10:12 51°16.35 2°53.127 5 265 3.5 101830 94
2004-01-22 08:10:18 51°16.37 2°53.111 5 269 3.5 101830 94
2004-01-22 08:10:22 51°16.383 2°53.1 5.1 267 3.5 101830 94
2004-01-22 08:10:28 51°16.404 2°53.083 5.9 278 3.5 101830 94
2004-01-22 08:10:32 51°16.417 2°53.072 5.9 274 3.5 101830 94
2004-01-22 08:10:38 51°16.437 2°53.056 4.9 261 3.5 101830 94
2004-01-22 08:10:42 51°16.451 2°53.045 5.9 263 3.5 101830 94
2004-01-22 08:10:48 51°16.471 2°53.029 6.5 261 3.5 101830 94
2004-01-22 08:10:52 51°16.485 2°53.018 6 265 3.5 101830 94
2004-01-22 08:10:58 51°16.506 2°53.002 3 255 3.5 101830 94
2004-01-22 08:11:03 51°16.523 2°52.989 3.8 258 3.5 101830 94
2004-01-22 08:11:08 51°16.54 2°52.975 3 255 3.5 101830 94
2004-01-22 08:11:12 51°16.553 2°52.964 4 251 3.5 101830 94
2004-01-22 08:11:18 51°16.573 2°52.948 3.9 260 3.5 101830 94
2004-01-22 08:11:22 51°16.587 2°52.937 3.2 254 3.5 101830 94
2004-01-22 08:11:28 51°16.607 2°52.92 3.9 259 3.5 101830 94
2004-01-22 08:11:32 51°16.62 2°52.909 4.9 261 3.5 101830 94
2004-01-22 08:11:38 51°16.64 2°52.893 3.8 278 3.5 101830 94
2004-01-22 08:11:42 51°16.654 2°52.881 4.1 267 3.5 101830 94
2004-01-22 08:11:48 51°16.674 2°52.865 4.7 237 3.5 101830 94
2004-01-22 08:11:52 51°16.687 2°52.854 2.5 249 3.5 101830 94
2004-01-22 08:11:56 51°16.7 2°52.843 5.7 267 3.5 101830 94
2004-01-22 08:12:02 51°16.72 2°52.826 5.8 261 3.5 101830 94
2004-01-22 08:12:08 51°16.74 2°52.811 2.6 256 3.5 101830 94
2004-01-22 08:12:12 51°16.753 2°52.8 3.7 258 3.5 101830 94
2004-01-22 08:12:18 51°16.773 2°52.784 4.5 258 3.5 101830 94
2004-01-22 08:12:22 51°16.786 2°52.774 4 257 3.6 101840 94
2004-01-22 08:12:28 51°16.805 2°52.758 5.5 261 3.6 101840 94
2004-01-22 08:12:32 51°16.818 2°52.748 4.2 257 3.5 101830 94
2004-01-22 08:12:38 51°16.836 2°52.731 4.1 257 3.5 101830 94
2004-01-22 08:12:42 51°16.849 2°52.72 4.7 255 3.6 101830 94
2004-01-22 08:12:48 51°16.868 2°52.703 4 257 3.6 101830 94
2004-01-22 08:12:52 51°16.88 2°52.692 4.5 259 3.6 101830 94
2004-01-22 08:12:58 51°16.899 2°52.674 4.7 265 3.6 101830 94
2004-01-22 08:13:02 51°16.911 2°52.664 3.9 254 3.5 101830 94
2004-01-22 08:13:08 51°16.93 2°52.647 4 253 3.5 101830 94
2004-01-22 08:13:12 51°16.943 2°52.636 4.3 261 3.5 101830 94
2004-01-22 08:13:16 51°16.956 2°52.624 4.3 266 3.5 101830 94
2004-01-22 08:13:23 51°16.978 2°52.606 4 281 3.5 101830 94
2004-01-22 08:13:28 51°16.995 2°52.593 5.7 260 3.5 101830 94
2004-01-22 08:13:32 51°17.008 2°52.583 2.9 257 3.5 101840 94
2004-01-22 08:13:38 51°17.028 2°52.569 3.2 254 3.5 101840 94
2004-01-22 08:13:43 51°17.045 2°52.559 2.9 255 3.6 101830 94
2004-01-22 08:13:48 51°17.062 2°52.548 3 252 3.6 101830 94
2004-01-22 08:13:52 51°17.075 2°52.54 3.6 254 3.6 101840 94
2004-01-22 08:13:58 51°17.095 2°52.527 3.5 253 3.6 101840 94
2004-01-22 08:14:02 51°17.109 2°52.518 4.1 252 3.6 101840 94
2004-01-22 08:14:08 51°17.129 2°52.505 3.7 254 3.6 101840 94
2004-01-22 08:14:12 51°17.142 2°52.496 3 251 3.6 101830 94
2004-01-22 08:14:18 51°17.162 2°52.482 5.1 259 3.6 101830 94
2004-01-22 08:14:22 51°17.175 2°52.471 4 259 3.6 101840 94
2004-01-22 08:14:28 51°17.194 2°52.457 3 253 3.6 101840 94
2004-01-22 08:14:32 51°17.208 2°52.447 4.1 243 3.6 101840 94
2004-01-22 08:14:36 51°17.221 2°52.438 3.2 239 3.6 101840 94
2004-01-22 08:14:42 51°17.241 2°52.425 2.2 252 3.6 101840 94
2004-01-22 08:14:48 51°17.262 2°52.414 4 233 3.6 101840 94
2004-01-22 08:14:52 51°17.276 2°52.408 3.5 232 3.6 101840 94
2004-01-22 08:14:58 51°17.297 2°52.398 1.9 254 3.6 101840 94
2004-01-22 08:15:02 51°17.312 2°52.393 1.8 245 3.6 101840 94
2004-01-22 08:15:08 51°17.333 2°52.383 3.6 238 3.6 101840 94
2004-01-22 08:15:12 51°17.347 2°52.377 4 228 3.6 101840 94
2004-01-22 08:15:18 51°17.368 2°52.367 4.1 240 3.6 101840 94
2004-01-22 08:15:21 51°17.378 2°52.362 3.8 238 3.6 101840 94
2004-01-22 08:15:28 51°17.402 2°52.349 4.4 233 3.6 101840 94
2004-01-22 08:15:32 51°17.416 2°52.341 4.2 232 3.6 101840 94
2004-01-22 08:15:38 51°17.437 2°52.329 3.5 225 3.6 101840 94
2004-01-22 08:15:42 51°17.451 2°52.322 3.9 239 3.6 101840 94
2004-01-22 08:15:48 51°17.471 2°52.31 3.6 241 3.6 101840 94
2004-01-22 08:15:52 51°17.485 2°52.303 3.9 223 3.5 101840 94
2004-01-22 08:15:58 51°17.506 2°52.292 3.2 270 3.5 101840 94
2004-01-22 08:16:02 51°17.52 2°52.286 2.2 255 3.5 101840 94
2004-01-22 08:16:08 51°17.541 2°52.275 2.8 253 3.5 101840 94
2004-01-22 08:16:12 51°17.555 2°52.268 2.9 252 3.6 101840 94
2004-01-22 08:16:18 51°17.575 2°52.257 2.4 251 3.6 101840 94
2004-01-22 08:16:22 51°17.589 2°52.251 3.8 250 3.6 101830 94
2004-01-22 08:16:28 51°17.61 2°52.239 3.6 249 3.6 101830 94
2004-01-22 08:16:32 51°17.624 2°52.233 3.9 248 3.6 101840 94
2004-01-22 08:16:38 51°17.645 2°52.221 4.8 239 3.6 101840 94
2004-01-22 08:16:42 51°17.659 2°52.214 4 241 3.6 101830 94
2004-01-22 08:16:48 51°17.679 2°52.203 3.7 250 3.6 101830 94
2004-01-22 08:16:52 51°17.693 2°52.195 4.5 262 3.6 101830 94
2004-01-22 08:16:58 51°17.714 2°52.185 4 260 3.6 101830 94
2004-01-22 08:17:01 51°17.724 2°52.179 3.5 255 3.6 101840 94
2004-01-22 08:17:08 51°17.748 2°52.166 5.2 243 3.6 101840 94
2004-01-22 08:17:12 51°17.762 2°52.159 5 239 3.5 101840 94
2004-01-22 08:17:18 51°17.783 2°52.148 4.5 236 3.5 101840 94
2004-01-22 08:17:22 51°17.797 2°52.141 4.7 237 3.6 101830 94
2004-01-22 08:17:28 51°17.818 2°52.13 4.1 238 3.6 101830 94
2004-01-22 08:17:32 51°17.832 2°52.123 4.2 232 3.6 101830 94
2004-01-22 08:17:38 51°17.852 2°52.112 3.2 246 3.6 101830 94
2004-01-22 08:17:42 51°17.866 2°52.104 3 257 3.6 101830 94
2004-01-22 08:17:48 51°17.887 2°52.093 4 250 3.6 101830 94
2004-01-22 08:17:52 51°17.901 2°52.086 3 254 3.6 101840 94
2004-01-22 08:17:58 51°17.921 2°52.075 4.3 247 3.6 101840 94
2004-01-22 08:18:02 51°17.935 2°52.067 4.8 236 3.5 101830 94
2004-01-22 08:18:08 51°17.956 2°52.056 3 256 3.5 101830 94
2004-01-22 08:18:12 51°17.97 2°52.048 2.9 253 3.5 101840 94
2004-01-22 08:18:18 51°17.991 2°52.036 3.9 270 3.5 101840 94
2004-01-22 08:18:22 51°18.004 2°52.028 3.9 264 3.6 101840 94
2004-01-22 08:18:28 51°18.025 2°52.017 4.1 256 3.6 101840 94
2004-01-22 08:18:32 51°18.039 2°52.01 4.1 254 3.6 101840 94
2004-01-22 08:18:38 51°18.06 2°51.999 4.7 243 3.6 101840 94
2004-01-22 08:18:42 51°18.074 2°51.992 4.8 244 3.6 101840 94
2004-01-22 08:18:47 51°18.091 2°51.982 3.9 245 3.6 101840 94
2004-01-22 08:18:52 51°18.108 2°51.972 5 241 3.6 101830 94
2004-01-22 08:18:58 51°18.129 2°51.961 3.7 252 3.6 101830 94
2004-01-22 08:19:01 51°18.14 2°51.955 4.4 246 3.6 101840 94
2004-01-22 08:19:08 51°18.164 2°51.941 3.3 257 3.6 101840 94
2004-01-22 08:19:12 51°18.178 2°51.933 2.8 255 3.6 101840 94
2004-01-22 08:19:16 51°18.192 2°51.925 2.2 254 3.6 101840 94
2004-01-22 08:19:22 51°18.213 2°51.914 2.1 249 3.6 101840 94
2004-01-22 08:19:28 51°18.234 2°51.902 4.3 260 3.6 101840 94
2004-01-22 08:19:32 51°18.248 2°51.894 3.2 250 3.6 101830 94
2004-01-22 08:19:38 51°18.269 2°51.882 3.6 252 3.6 101830 94
2004-01-22 08:19:42 51°18.283 2°51.874 4.1 245 3.6 101840 94
2004-01-22 08:19:48 51°18.304 2°51.863 5.3 242 3.6 101840 94
2004-01-22 08:19:52 51°18.318 2°51.855 3.8 248 3.7 101830 94
2004-01-22 08:19:56 51°18.332 2°51.847 5.5 234 3.7 101830 94
2004-01-22 08:20:02 51°18.353 2°51.835 4.8 242 3.7 101830 94
2004-01-22 08:20:08 51°18.374 2°51.822 4.9 237 3.7 101830 94
2004-01-22 08:20:12 51°18.388 2°51.814 2.3 256 3.7 101830 94
2004-01-22 08:20:18 51°18.409 2°51.802 2.8 247 3.7 101830 94
2004-01-22 08:20:22 51°18.423 2°51.794 3.3 249 3.7 101830 94
2004-01-22 08:20:28 51°18.444 2°51.782 3.2 244 3.7 101830 94
2004-01-22 08:20:32 51°18.458 2°51.773 4.4 227 3.7 101830 94
2004-01-22 08:20:38 51°18.479 2°51.761 2.8 246 3.7 101830 94
2004-01-22 08:20:42 51°18.493 2°51.752 3.6 235 3.7 101830 94
2004-01-22 08:20:48 51°18.514 2°51.74 2.8 252 3.7 101830 94
2004-01-22 08:20:52 51°18.528 2°51.731 4.9 264 3.7 101830 94
2004-01-22 08:20:58 51°18.549 2°51.719 4.8 268 3.7 101830 94
2004-01-22 08:21:02 51°18.563 2°51.71 5.7 274 3.7 101830 94
2004-01-22 08:21:07 51°18.58 2°51.699 3.9 247 3.7 101830 94
2004-01-22 08:21:12 51°18.598 2°51.689 3.3 254 3.7 101830 94
2004-01-22 08:21:18 51°18.619 2°51.677 3.5 251 3.7 101830 94
2004-01-22 08:21:22 51°18.633 2°51.668 3.2 257 3.7 101840 94
2004-01-22 08:21:28 51°18.654 2°51.656 4.9 259 3.7 101840 94
2004-01-22 08:21:32 51°18.667 2°51.647 3.5 255 3.8 101830 94
2004-01-22 08:21:37 51°18.685 2°51.636 3.2 250 3.8 101830 94
2004-01-22 08:21:42 51°18.702 2°51.626 3.5 257 3.8 101830 94
2004-01-22 08:21:48 51°18.723 2°51.613 5 242 3.8 101830 94
2004-01-22 08:21:52 51°18.737 2°51.604 3.3 254 3.7 101830 94
2004-01-22 08:21:58 51°18.758 2°51.591 3.2 254 3.7 101830 94
2004-01-22 08:22:02 51°18.772 2°51.582 3.4 264 3.7 101830 94
2004-01-22 08:22:08 51°18.793 2°51.569 2.9 257 3.7 101830 94
2004-01-22 08:22:12 51°18.807 2°51.559 3.7 257 3.7 101830 94
2004-01-22 08:22:18 51°18.828 2°51.547 3.4 253 3.7 101830 94
2004-01-22 08:22:22 51°18.842 2°51.538 5.4 235 3.7 101840 94
2004-01-22 08:22:28 51°18.862 2°51.525 4 249 3.7 101840 94
2004-01-22 08:22:32 51°18.876 2°51.517 3.9 256 3.7 101830 94
2004-01-22 08:22:38 51°18.897 2°51.505 3.2 244 3.7 101830 94
2004-01-22 08:22:42 51°18.911 2°51.496 3.7 249 3.7 101840 94
2004-01-22 08:22:48 51°18.932 2°51.484 3.4 250 3.7 101840 94
2004-01-22 08:22:52 51°18.946 2°51.474 4.3 264 3.7 101830 94
2004-01-22 08:22:58 51°18.967 2°51.461 4.6 248 3.7 101830 94
2004-01-22 08:23:02 51°18.98 2°51.452 4.9 247 3.7 101830 94
2004-01-22 08:23:08 51°19.001 2°51.439 4.5 247 3.7 101830 94
2004-01-22 08:23:12 51°19.015 2°51.431 3 251 3.7 101830 94
2004-01-22 08:23:18 51°19.036 2°51.418 2.4 254 3.7 101830 94
2004-01-22 08:23:22 51°19.05 2°51.409 3.4 251 3.7 101830 94
2004-01-22 08:23:28 51°19.071 2°51.397 3.6 253 3.7 101830 94
2004-01-22 08:23:32 51°19.085 2°51.387 3.6 250 3.7 101830 94
2004-01-22 08:23:38 51°19.106 2°51.375 4.2 241 3.7 101830 94
2004-01-22 08:23:42 51°19.119 2°51.366 4.3 226 3.7 101830 94
2004-01-22 08:23:48 51°19.141 2°51.355 3.3 232 3.7 101830 94
2004-01-22 08:23:52 51°19.155 2°51.348 2.4 252 3.7 101830 94
2004-01-22 08:23:58 51°19.176 2°51.337 2.6 256 3.7 101830 94
2004-01-22 08:24:02 51°19.19 2°51.33 3.1 259 3.7 101830 94
2004-01-22 08:24:08 51°19.211 2°51.319 3.2 253 3.7 101830 94
2004-01-22 08:24:12 51°19.226 2°51.311 3.7 246 3.7 101830 94
2004-01-22 08:24:18 51°19.247 2°51.3 3 258 3.7 101830 94
2004-01-22 08:24:22 51°19.261 2°51.292 3.3 249 3.7 101830 94
2004-01-22 08:24:28 51°19.283 2°51.28 3.9 241 3.7 101830 94
2004-01-22 08:24:32 51°19.297 2°51.273 4 240 3.8 101840 94
2004-01-22 08:24:38 51°19.318 2°51.261 3.3 256 3.8 101840 94
2004-01-22 08:24:42 51°19.332 2°51.253 3.9 255 3.7 101830 94
2004-01-22 08:24:48 51°19.354 2°51.241 4.2 249 3.7 101830 94
2004-01-22 08:24:52 51°19.368 2°51.233 4.8 241 3.8 101830 94
2004-01-22 08:24:58 51°19.389 2°51.221 5.2 234 3.8 101830 94
2004-01-22 08:25:02 51°19.404 2°51.213 4.6 242 3.7 101830 94
2004-01-22 08:25:08 51°19.425 2°51.202 3.5 247 3.7 101830 94
2004-01-22 08:25:12 51°19.439 2°51.194 4 233 3.8 101830 94
2004-01-22 08:25:18 51°19.46 2°51.182 3.5 240 3.8 101830 94
2004-01-22 08:25:22 51°19.475 2°51.174 4.1 235 3.8 101830 94
2004-01-22 08:25:28 51°19.496 2°51.162 3.6 265 3.8 101830 94
2004-01-22 08:25:32 51°19.51 2°51.154 2.7 258 3.7 101830 94
2004-01-22 08:25:38 51°19.532 2°51.142 3.6 236 3.7 101830 94
2004-01-22 08:25:42 51°19.546 2°51.134 2.8 248 3.8 101830 94
2004-01-22 08:25:48 51°19.567 2°51.122 4.2 230 3.8 101830 94
2004-01-22 08:25:52 51°19.582 2°51.114 3.6 233 3.8 101830 94
2004-01-22 08:25:58 51°19.603 2°51.102 3.6 231 3.8 101830 94
2004-01-22 08:26:02 51°19.618 2°51.094 4.6 238 3.8 101830 94
2004-01-22 08:26:08 51°19.639 2°51.083 4 241 3.8 101830 94
2004-01-22 08:26:12 51°19.653 2°51.075 3.2 239 3.8 101830 94
2004-01-22 08:26:18 51°19.675 2°51.064 2.6 248 3.8 101830 94
2004-01-22 08:26:22 51°19.689 2°51.057 3.1 244 3.8 101830 94
2004-01-22 08:26:28 51°19.71 2°51.046 2.8 252 3.8 101830 94
2004-01-22 08:26:32 51°19.725 2°51.038 3.5 234 3.8 101830 94
2004-01-22 08:26:38 51°19.746 2°51.027 3.2 246 3.8 101830 94
2004-01-22 08:26:41 51°19.757 2°51.021 3.2 248 3.8 101840 94
2004-01-22 08:26:48 51°19.782 2°51.008 4.4 230 3.8 101840 94
2004-01-22 08:26:52 51°19.796 2°51 3.1 229 3.8 101830 94
2004-01-22 08:26:58 51°19.817 2°50.99 3.4 237 3.8 101830 94
2004-01-22 08:27:02 51°19.832 2°50.983 3.6 228 3.8 101830 94
2004-01-22 08:27:08 51°19.853 2°50.972 2.9 237 3.8 101830 94
2004-01-22 08:27:12 51°19.868 2°50.965 3.5 257 3.8 101830 94
2004-01-22 08:27:18 51°19.889 2°50.954 2.8 249 3.8 101830 94
2004-01-22 08:27:22 51°19.904 2°50.946 2.9 262 3.8 101830 94
2004-01-22 08:27:28 51°19.925 2°50.935 4.2 262 3.8 101830 94
2004-01-22 08:27:32 51°19.94 2°50.928 3.1 256 3.8 101830 94
2004-01-22 08:27:38 51°19.962 2°50.918 3.7 269 3.8 101830 94
2004-01-22 08:27:42 51°19.976 2°50.911 4.9 266 3.8 101830 94
2004-01-22 08:27:48 51°19.998 2°50.9 4.1 259 3.8 101830 94
2004-01-22 08:27:52 51°20.012 2°50.892 3.6 254 3.8 101830 94
2004-01-22 08:27:58 51°20.034 2°50.881 2.9 251 3.8 101830 94
2004-01-22 08:28:02 51°20.048 2°50.873 3.5 256 3.8 101830 94
2004-01-22 08:28:08 51°20.07 2°50.862 4 252 3.8 101830 94
2004-01-22 08:28:12 51°20.085 2°50.855 4.1 253 3.9 101830 94
2004-01-22 08:28:18 51°20.106 2°50.844 3.4 251 3.9 101830 94
2004-01-22 08:28:22 51°20.121 2°50.835 3.6 252 3.9 101830 94
2004-01-22 08:28:28 51°20.143 2°50.824 4.2 246 3.9 101830 94
2004-01-22 08:28:32 51°20.158 2°50.816 3.5 250 3.9 101820 94
2004-01-22 08:28:38 51°20.18 2°50.805 3.8 258 3.9 101820 94
2004-01-22 08:28:42 51°20.194 2°50.796 2.8 255 3.8 101830 94
2004-01-22 08:28:48 51°20.216 2°50.785 4.1 241 3.8 101830 94
2004-01-22 08:28:52 51°20.231 2°50.777 3.9 245 3.8 101830 94
2004-01-22 08:28:58 51°20.253 2°50.765 4.1 243 3.8 101830 94
2004-01-22 08:29:02 51°20.268 2°50.758 3.3 247 3.8 101830 94
2004-01-22 08:29:08 51°20.289 2°50.746 2.6 247 3.8 101830 94
2004-01-22 08:29:12 51°20.304 2°50.739 2.9 247 3.8 101830 94
2004-01-22 08:29:18 51°20.326 2°50.727 2.2 255 3.8 101830 94
2004-01-22 08:29:22 51°20.341 2°50.719 2.9 246 3.8 101820 94
2004-01-22 08:29:28 51°20.362 2°50.708 3.2 243 3.8 101820 94
2004-01-22 08:29:32 51°20.377 2°50.701 3.6 246 3.8 101820 94
2004-01-22 08:29:38 51°20.399 2°50.689 2.5 249 3.8 101820 94
2004-01-22 08:29:42 51°20.413 2°50.682 2.8 245 3.8 101820 94
2004-01-22 08:29:48 51°20.435 2°50.67 3.2 249 3.8 101820 94
2004-01-22 08:29:52 51°20.45 2°50.662 3.1 242 3.8 101820 94
2004-01-22 08:29:58 51°20.472 2°50.651 2.5 253 3.8 101820 94
2004-01-22 08:30:02 51°20.487 2°50.643 3 250 3.9 101820 94
2004-01-22 08:30:08 51°20.508 2°50.63 3.2 260 3.9 101820 94
2004-01-22 08:30:12 51°20.523 2°50.623 3.8 279 3.9 101820 94
2004-01-22 08:30:18 51°20.545 2°50.61 3.3 258 3.9 101820 94
2004-01-22 08:30:22 51°20.56 2°50.603 3 254 3.9 101820 94
2004-01-22 08:30:28 51°20.581 2°50.59 3.7 247 3.9 101820 94
2004-01-22 08:30:32 51°20.596 2°50.583 3.7 251 3.9 101820 94
2004-01-22 08:30:38 51°20.618 2°50.571 3.9 233 3.9 101820 94
2004-01-22 08:30:42 51°20.633 2°50.564 3.4 242 3.9 101820 94
2004-01-22 08:30:48 51°20.655 2°50.552 3 246 3.9 101820 94
2004-01-22 08:30:52 51°20.669 2°50.544 3.2 242 3.9 101820 94
2004-01-22 08:30:58 51°20.691 2°50.532 2.7 252 3.9 101820 94
2004-01-22 08:31:00 51°20.699 2°50.528 3.2 256 3.9 101820 94
2004-01-22 08:31:08 51°20.728 2°50.512 3.4 249 3.9 101820 94
2004-01-22 08:31:12 51°20.742 2°50.505 3.8 237 3.9 101820 94
2004-01-22 08:31:18 51°20.764 2°50.494 2.5 255 3.9 101820 94
2004-01-22 08:31:22 51°20.779 2°50.488 3.7 267 3.9 101810 94
2004-01-22 08:31:28 51°20.801 2°50.478 2.3 244 3.9 101810 94
2004-01-22 08:31:32 51°20.815 2°50.472 2.7 255 3.9 101820 94
2004-01-22 08:31:36 51°20.83 2°50.466 1.7 254 3.9 101820 94
2004-01-22 08:31:50 51°20.881 2°50.445 3.1 248 3.9 101810 94
2004-01-22 08:31:56 51°20.903 2°50.435 4 237 3.9 101810 94
2004-01-22 08:32:01 51°20.921 2°50.427 4.4 236 3.9 101820 94
2004-01-22 08:32:06 51°20.94 2°50.42 4.3 239 3.9 101820 94
2004-01-22 08:32:08 51°20.947 2°50.417 4.3 241 3.9 101810 94
2004-01-22 08:32:16 51°20.976 2°50.403 3.9 249 3.9 101810 94
2004-01-22 08:32:20 51°20.991 2°50.397 4.2 238 3.9 101810 94
2004-01-22 08:32:26 51°21.013 2°50.387 3.4 240 3.9 101810 94
2004-01-22 08:32:30 51°21.028 2°50.381 3.5 243 3.9 101820 94
2004-01-22 08:32:36 51°21.05 2°50.37 4.2 247 3.9 101820 94
2004-01-22 08:32:50 51°21.102 2°50.347 4.3 239 3.9 101810 94
2004-01-22 08:32:56 51°21.123 2°50.336 3.7 228 3.9 101810 94
2004-01-22 08:33:00 51°21.138 2°50.33 3.4 210 3.8 101810 94
2004-01-22 08:33:06 51°21.161 2°50.322 3.2 231 3.8 101810 94
2004-01-22 08:33:08 51°21.168 2°50.319 2.8 238 3.9 101810 94
2004-01-22 08:33:16 51°21.199 2°50.309 4.3 223 3.9 101810 94
2004-01-22 08:33:20 51°21.213 2°50.303 3.9 218 3.9 101810 94
2004-01-22 08:33:26 51°21.236 2°50.295 2.9 218 3.9 101810 94
2004-01-22 08:33:30 51°21.251 2°50.29 2.9 228 3.9 101810 94
2004-01-22 08:33:36 51°21.273 2°50.283 3.1 226 3.9 101810 94
2004-01-22 08:33:40 51°21.288 2°50.278 2.8 218 3.8 101810 94
2004-01-22 08:33:46 51°21.31 2°50.271 2.2 238 3.8 101810 94
2004-01-22 08:33:50 51°21.325 2°50.266 2.4 227 3.9 101810 94
2004-01-22 08:33:56 51°21.348 2°50.258 2.7 222 3.9 101810 94
2004-01-22 08:34:00 51°21.362 2°50.253 2.6 230 3.9 101810 94
2004-01-22 08:34:06 51°21.385 2°50.245 3.8 218 3.9 101810 94
2004-01-22 08:34:08 51°21.392 2°50.243 3 240 3.9 101810 94
2004-01-22 08:34:16 51°21.422 2°50.234 3.3 228 3.9 101810 94
2004-01-22 08:34:20 51°21.437 2°50.229 2.3 247 3.9 101810 94
2004-01-22 08:34:26 51°21.46 2°50.222 2.5 243 3.9 101810 94
2004-01-22 08:34:30 51°21.475 2°50.217 3.2 250 3.9 101810 94
2004-01-22 08:34:36 51°21.497 2°50.21 3.4 236 3.9 101810 94
2004-01-22 08:34:40 51°21.512 2°50.205 2.5 254 3.9 101810 94
2004-01-22 08:34:45 51°21.531 2°50.199 3.2 240 3.9 101810 94
2004-01-22 08:34:50 51°21.549 2°50.193 3.7 230 3.9 101810 94
2004-01-22 08:34:56 51°21.572 2°50.186 3.6 232 3.9 101810 94
2004-01-22 08:35:01 51°21.591 2°50.181 3.2 229 3.9 101810 94
2004-01-22 08:35:06 51°21.609 2°50.174 3.3 219 3.9 101810 94
2004-01-22 08:35:08 51°21.617 2°50.172 2.8 224 3.9 101800 94
2004-01-22 08:35:16 51°21.646 2°50.164 2.4 241 3.9 101800 94
2004-01-22 08:35:20 51°21.661 2°50.159 2.4 239 3.9 101800 94
2004-01-22 08:35:26 51°21.684 2°50.152 2.2 253 3.9 101800 94
2004-01-22 08:35:30 51°21.699 2°50.148 3.5 235 3.9 101800 94
2004-01-22 08:35:36 51°21.721 2°50.142 3.5 234 3.9 101800 94
2004-01-22 08:35:40 51°21.736 2°50.137 3.7 235 3.9 101810 94
2004-01-22 08:35:46 51°21.759 2°50.13 3.5 233 3.9 101810 94
2004-01-22 08:35:50 51°21.774 2°50.125 2.6 249 3.9 101810 94
2004-01-22 08:35:56 51°21.797 2°50.117 3.9 226 3.9 101810 94
2004-01-22 08:36:00 51°21.812 2°50.112 3.5 226 3.9 101810 94
2004-01-22 08:36:06 51°21.834 2°50.106 3.3 236 3.9 101810 94
2004-01-22 08:36:10 51°21.849 2°50.101 3.5 229 3.9 101800 94
2004-01-22 08:36:16 51°21.872 2°50.095 3.5 231 3.9 101800 94
2004-01-22 08:36:20 51°21.887 2°50.09 2.5 229 3.9 101800 94
2004-01-22 08:36:26 51°21.91 2°50.083 2.5 249 3.9 101800 94
2004-01-22 08:36:31 51°21.929 2°50.077 2.8 242 3.9 101800 94
2004-01-22 08:36:36 51°21.948 2°50.07 2.7 236 3.9 101800 94
2004-01-22 08:36:40 51°21.963 2°50.066 2.8 229 3.9 101800 94
2004-01-22 08:36:46 51°21.986 2°50.058 2.7 258 3.9 101800 94
2004-01-22 08:36:50 51°22.001 2°50.053 3.8 231 3.9 101800 94
2004-01-22 08:36:56 51°22.023 2°50.045 3.6 221 3.9 101800 94
2004-01-22 08:37:00 51°22.038 2°50.041 3.5 223 3.9 101800 94
2004-01-22 08:37:06 51°22.061 2°50.034 3.4 214 3.9 101800 94
2004-01-22 08:37:10 51°22.075 2°50.028 3.3 216 3.9 101800 94
2004-01-22 08:37:16 51°22.098 2°50.021 2.8 227 3.9 101800 94
2004-01-22 08:37:20 51°22.113 2°50.016 2.7 205 3.9 101800 94
2004-01-22 08:37:26 51°22.134 2°50.009 2.7 217 3.9 101800 94
2004-01-22 08:37:30 51°22.149 2°50.003 2.6 205 3.9 101800 94
2004-01-22 08:37:36 51°22.171 2°49.996 2.5 214 3.9 101800 94
2004-01-22 08:37:40 51°22.186 2°49.992 2.4 249 3.9 101800 94
2004-01-22 08:37:46 51°22.208 2°49.985 2.4 221 3.9 101800 94
2004-01-22 08:37:50 51°22.222 2°49.98 3.1 219 3.9 101800 94
2004-01-22 08:37:56 51°22.244 2°49.974 2.1 243 3.9 101800 94
2004-01-22 08:38:00 51°22.258 2°49.969 3.2 230 3.9 101800 94
2004-01-22 08:38:06 51°22.28 2°49.963 3.2 228 3.9 101800 94
2004-01-22 08:38:11 51°22.299 2°49.956 3 235 3.9 101800 94
2004-01-22 08:38:16 51°22.317 2°49.95 3.6 228 3.9 101800 94
2004-01-22 08:38:20 51°22.331 2°49.945 3.6 220 3.9 101800 94
2004-01-22 08:38:26 51°22.353 2°49.939 4 214 3.9 101800 94
2004-01-22 08:38:30 51°22.368 2°49.934 4 222 3.9 101800 94
2004-01-22 08:38:36 51°22.39 2°49.926 3.6 226 3.9 101800 94
2004-01-22 08:38:40 51°22.405 2°49.921 3.6 221 3.9 101800 94
2004-01-22 08:38:46 51°22.427 2°49.914 3.6 215 3.9 101800 94
2004-01-22 08:38:50 51°22.442 2°49.908 3.5 216 3.9 101800 94
2004-01-22 08:38:56 51°22.463 2°49.902 3.1 226 3.9 101800 94
2004-01-22 08:39:00 51°22.478 2°49.897 2.6 212 3.9 101800 94
2004-01-22 08:39:04 51°22.493 2°49.893 3 223 3.9 101800 94
2004-01-22 08:39:10 51°22.515 2°49.888 2.8 234 3.9 101800 94
2004-01-22 08:39:16 51°22.537 2°49.882 2.7 235 3.9 101800 94
2004-01-22 08:39:20 51°22.552 2°49.877 2.8 230 3.9 101800 94
2004-01-22 08:39:26 51°22.574 2°49.87 2.8 220 3.9 101800 94
2004-01-22 08:39:30 51°22.589 2°49.866 1.9 214 3.9 101800 94
2004-01-22 08:39:36 51°22.611 2°49.858 2.5 226 3.9 101800 94
2004-01-22 08:39:40 51°22.625 2°49.853 2.3 235 4 101800 94
2004-01-22 08:39:46 51°22.647 2°49.847 2 249 4 101800 94
2004-01-22 08:39:50 51°22.662 2°49.841 1.7 263 4 101800 94
2004-01-22 08:39:56 51°22.683 2°49.835 1.4 259 4 101800 94
2004-01-22 08:40:00 51°22.698 2°49.831 2.7 235 4 101800 94
2004-01-22 08:40:04 51°22.713 2°49.827 2.5 240 4 101800 94
2004-01-22 08:40:10 51°22.734 2°49.821 2.3 241 4 101800 94
2004-01-22 08:40:16 51°22.756 2°49.814 2.7 236 4 101800 94
2004-01-22 08:40:20 51°22.77 2°49.809 2.6 230 4 101800 94
2004-01-22 08:40:26 51°22.791 2°49.802 2.1 247 4 101800 94
2004-01-22 08:40:30 51°22.805 2°49.799 2.1 253 4 101800 94
2004-01-22 08:40:36 51°22.826 2°49.792 3.8 215 4 101800 94
2004-01-22 08:40:40 51°22.841 2°49.789 2.9 214 4 101800 94
2004-01-22 08:40:46 51°22.862 2°49.784 2.1 207 4 101800 94
2004-01-22 08:40:51 51°22.88 2°49.778 3.2 218 4 101800 94
2004-01-22 08:40:56 51°22.897 2°49.774 2.8 206 4 101800 94
2004-01-22 08:41:00 51°22.911 2°49.77 2.8 211 4 101800 94
2004-01-22 08:41:06 51°22.932 2°49.766 1.6 207 4 101800 94
2004-01-22 08:41:10 51°22.947 2°49.762 1.9 254 4 101800 94
2004-01-22 08:41:16 51°22.968 2°49.756 2.6 230 4 101800 94
2004-01-22 08:41:20 51°22.983 2°49.751 3 221 4 101800 94
2004-01-22 08:41:26 51°23.004 2°49.745 2.6 228 4 101800 94
2004-01-22 08:41:30 51°23.018 2°49.74 2.6 222 4.1 101800 94
2004-01-22 08:41:36 51°23.039 2°49.734 2.6 258 4.1 101800 94
2004-01-22 08:41:40 51°23.053 2°49.73 2.4 228 4.1 101790 94
2004-01-22 08:41:45 51°23.071 2°49.725 4.2 221 4.1 101790 94
2004-01-22 08:41:50 51°23.089 2°49.72 4.4 228 4.1 101790 94
2004-01-22 08:41:56 51°23.11 2°49.713 4.2 223 4.1 101790 94
2004-01-22 08:42:00 51°23.124 2°49.708 3 232 4.1 101730 94
2004-01-22 08:42:06 51°23.145 2°49.703 3.2 230 4.1 101730 94
2004-01-22 08:42:10 51°23.159 2°49.698 3.8 208 4.1 101730 94
2004-01-22 08:42:16 51°23.18 2°49.694 3.4 225 4.1 101730 94
2004-01-22 08:42:20 51°23.194 2°49.689 2.8 212 4.1 101730 94
2004-01-22 08:42:26 51°23.216 2°49.683 2.5 264 4.1 101730 94
2004-01-22 08:42:30 51°23.23 2°49.677 2.6 245 4.1 101730 94
2004-01-22 08:42:36 51°23.252 2°49.67 2.8 238 4.1 101730 94
2004-01-22 08:42:50 51°23.303 2°49.653 2.6 246 4.1 101730 94
2004-01-22 08:42:56 51°23.324 2°49.645 3.4 232 4.1 101730 94
2004-01-22 08:43:00 51°23.338 2°49.641 2.6 211 4.1 101730 94
2004-01-22 08:43:06 51°23.36 2°49.634 2.7 224 4.1 101730 94
2004-01-22 08:43:10 51°23.374 2°49.63 3.2 225 4.1 101730 94
2004-01-22 08:43:16 51°23.395 2°49.623 2.8 232 4.1 101730 94
2004-01-22 08:43:20 51°23.41 2°49.618 3.7 220 4.1 101730 94
2004-01-22 08:43:26 51°23.43 2°49.611 2.7 212 4.1 101730 94
2004-01-22 08:43:30 51°23.445 2°49.607 2.8 210 4.1 101730 94
2004-01-22 08:43:36 51°23.466 2°49.6 3 203 4.1 101730 94
2004-01-22 08:43:40 51°23.48 2°49.597 3.2 215 4.1 101730 94
2004-01-22 08:43:46 51°23.502 2°49.59 2.3 230 4.1 101730 94
2004-01-22 08:43:50 51°23.516 2°49.585 2.7 228 4.1 101720 94
2004-01-22 08:43:56 51°23.538 2°49.577 2.1 221 4.1 101720 94
2004-01-22 08:44:00 51°23.552 2°49.572 3 245 4.1 101730 94
2004-01-22 08:44:06 51°23.574 2°49.563 5.2 230 4.1 101730 94
2004-01-22 08:44:10 51°23.588 2°49.556 3.9 228 4.1 101730 94
2004-01-22 08:44:16 51°23.61 2°49.549 4.4 232 4.1 101730 94
2004-01-22 08:44:20 51°23.625 2°49.542 3.6 216 4.1 101730 94
2004-01-22 08:44:25 51°23.643 2°49.538 3.4 222 4.1 101730 94
2004-01-22 08:44:30 51°23.661 2°49.53 3.3 211 4.1 101720 94
2004-01-22 08:44:36 51°23.683 2°49.525 2.8 214 4.1 101720 94
2004-01-22 08:44:40 51°23.697 2°49.52 2.8 214 4.1 101720 94
2004-01-22 08:44:46 51°23.719 2°49.513 3.3 225 4.1 101720 94
2004-01-22 08:44:50 51°23.734 2°49.507 2.3 215 4.1 101720 94
2004-01-22 08:44:56 51°23.756 2°49.499 3.2 236 4.1 101720 94
2004-01-22 08:45:00 51°23.77 2°49.492 2.3 226 4.1 101720 94
2004-01-22 08:45:06 51°23.792 2°49.484 1.3 222 4.1 101720 94
2004-01-22 08:45:10 51°23.806 2°49.477 1.7 242 4.1 101720 94
2004-01-22 08:45:16 51°23.828 2°49.469 1.6 246 4.1 101720 94
2004-01-22 08:45:20 51°23.843 2°49.463 2.7 224 4.1 101730 94
2004-01-22 08:45:26 51°23.864 2°49.456 3.2 218 4.1 101730 94
2004-01-22 08:45:30 51°23.878 2°49.45 3.2 230 4.1 101720 94
2004-01-22 08:45:36 51°23.9 2°49.443 2.7 211 4.1 101720 94
2004-01-22 08:45:40 51°23.914 2°49.439 2.9 217 4.2 101720 94
2004-01-22 08:45:46 51°23.936 2°49.431 2.9 215 4.2 101720 94
2004-01-22 08:45:50 51°23.95 2°49.427 2.5 222 4.1 101730 94
2004-01-22 08:45:56 51°23.972 2°49.42 2.2 226 4.1 101730 94
2004-01-22 08:46:00 51°23.986 2°49.415 2.2 262 4.1 101720 94
2004-01-22 08:46:05 51°24.004 2°49.408 2.3 239 4.1 101720 94
2004-01-22 08:46:10 51°24.022 2°49.402 2.9 219 4.1 101720 94
2004-01-22 08:46:16 51°24.044 2°49.394 3.2 237 4.1 101720 94
2004-01-22 08:46:20 51°24.059 2°49.39 3.1 230 4.2 101720 94
2004-01-22 08:46:26 51°24.08 2°49.382 2 257 4.2 101720 94
2004-01-22 08:46:30 51°24.094 2°49.378 2.5 261 4.2 101730 94
2004-01-22 08:46:36 51°24.115 2°49.37 3.5 219 4.2 101730 94
2004-01-22 08:46:40 51°24.13 2°49.366 3.6 234 4.2 101730 94
2004-01-22 08:46:46 51°24.151 2°49.358 4.1 222 4.2 101730 94
2004-01-22 08:46:50 51°24.166 2°49.353 4.8 220 4.2 101730 94
2004-01-22 08:46:56 51°24.187 2°49.345 4.9 214 4.2 101730 94
2004-01-22 08:47:00 51°24.202 2°49.341 3.4 214 4.2 101720 94
2004-01-22 08:47:06 51°24.223 2°49.335 3.8 220 4.2 101720 94
2004-01-22 08:47:10 51°24.238 2°49.33 4 203 4.2 101720 94
2004-01-22 08:47:16 51°24.26 2°49.322 3.7 226 4.2 101720 94
2004-01-22 08:47:20 51°24.274 2°49.316 2.4 223 4.2 101720 94
2004-01-22 08:47:25 51°24.292 2°49.31 3.6 231 4.2 101720 94
2004-01-22 08:47:30 51°24.311 2°49.303 3.6 232 4.2 101730 94
2004-01-22 08:47:36 51°24.333 2°49.296 3.7 230 4.2 101730 94
2004-01-22 08:47:40 51°24.347 2°49.29 3.9 229 4.2 101720 94
2004-01-22 08:47:46 51°24.369 2°49.282 4.4 232 4.2 101720 94
2004-01-22 08:47:51 51°24.388 2°49.275 3.5 235 4.2 101720 94
2004-01-22 08:47:56 51°24.406 2°49.267 3.4 224 4.2 101720 94
2004-01-22 08:48:00 51°24.421 2°49.261 3.5 224 4.2 101730 94
2004-01-22 08:48:06 51°24.443 2°49.253 3.6 231 4.2 101730 94
2004-01-22 08:48:10 51°24.458 2°49.246 2.7 232 4.2 101730 94
2004-01-22 08:48:16 51°24.48 2°49.237 3.6 232 4.2 101730 94
2004-01-22 08:48:20 51°24.495 2°49.23 3.2 239 4.2 101730 94
2004-01-22 08:48:26 51°24.516 2°49.221 2.6 242 4.2 101730 94
2004-01-22 08:48:31 51°24.535 2°49.214 2.3 258 4.2 101720 94
2004-01-22 08:48:36 51°24.553 2°49.209 2.7 283 4.2 101720 94
2004-01-22 08:48:40 51°24.568 2°49.203 3.3 235 4.2 101720 94
2004-01-22 08:48:46 51°24.59 2°49.196 3.6 238 4.2 101720 94
2004-01-22 08:48:50 51°24.604 2°49.19 2.9 258 4.2 101720 94
2004-01-22 08:48:56 51°24.626 2°49.184 3.3 247 4.2 101720 94
2004-01-22 08:49:00 51°24.64 2°49.179 5.4 225 4.2 101720 94
2004-01-22 08:49:06 51°24.662 2°49.173 4.1 233 4.2 101720 94
2004-01-22 08:49:08 51°24.669 2°49.171 4.1 230 4.2 101720 94
2004-01-22 08:49:16 51°24.698 2°49.161 3.4 226 4.2 101720 94
2004-01-22 08:49:20 51°24.712 2°49.156 3.2 239 4.3 101720 94
2004-01-22 08:49:26 51°24.734 2°49.148 2 250 4.3 101720 94
2004-01-22 08:49:30 51°24.749 2°49.142 2.3 250 4.2 101720 94
2004-01-22 08:49:36 51°24.77 2°49.134 4.6 239 4.2 101720 94
2004-01-22 08:49:40 51°24.785 2°49.128 3.5 243 4.2 101720 94
2004-01-22 08:49:45 51°24.803 2°49.122 3.6 245 4.2 101720 94
2004-01-22 08:49:50 51°24.821 2°49.115 3 240 4.3 101720 94
2004-01-22 08:49:56 51°24.842 2°49.107 2.6 231 4.3 101720 94
2004-01-22 08:50:01 51°24.86 2°49.101 2.9 222 4.3 101720 94
2004-01-22 08:50:06 51°24.878 2°49.094 3.4 241 4.3 101720 94
2004-01-22 08:50:08 51°24.885 2°49.091 2.8 242 4.3 101710 94
2004-01-22 08:50:16 51°24.914 2°49.08 2.3 240 4.3 101710 94
2004-01-22 08:50:20 51°24.929 2°49.076 2.4 261 4.3 101710 94
2004-01-22 08:50:26 51°24.951 2°49.068 4.2 221 4.3 101710 94
2004-01-22 08:50:30 51°24.965 2°49.064 3.6 242 4.3 101710 94
2004-01-22 08:50:36 51°24.987 2°49.056 3.8 242 4.3 101710 94
2004-01-22 08:50:40 51°25.001 2°49.05 3.6 235 4.3 101710 94
2004-01-22 08:50:46 51°25.023 2°49.043 4 234 4.3 101710 94
2004-01-22 08:50:50 51°25.037 2°49.037 4.2 235 4.3 101710 94
2004-01-22 08:50:56 51°25.059 2°49.03 4.7 232 4.3 101710 94
2004-01-22 08:51:00 51°25.073 2°49.024 3.3 244 4.3 101710 94
2004-01-22 08:51:06 51°25.095 2°49.016 2.8 236 4.3 101710 94
2004-01-22 08:51:10 51°25.109 2°49.01 3.3 225 4.3 101710 94
2004-01-22 08:51:16 51°25.13 2°49.003 5.7 227 4.3 101710 94
2004-01-22 08:51:20 51°25.145 2°48.997 4.5 221 4.3 101710 94
2004-01-22 08:51:26 51°25.167 2°48.989 3.9 234 4.3 101710 94
2004-01-22 08:51:30 51°25.181 2°48.982 4.2 242 4.3 101700 94
2004-01-22 08:51:36 51°25.203 2°48.973 4 219 4.3 101700 94
2004-01-22 08:51:40 51°25.218 2°48.967 4.6 227 4.3 101700 94
2004-01-22 08:51:46 51°25.239 2°48.957 2.2 229 4.3 101700 94
2004-01-22 08:51:51 51°25.258 2°48.95 3.6 217 4.3 101710 94
2004-01-22 08:51:56 51°25.276 2°48.945 3.1 226 4.3 101710 94
2004-01-22 08:52:00 51°25.29 2°48.939 3.3 215 4.3 101700 94
2004-01-22 08:52:06 51°25.312 2°48.932 3.4 221 4.3 101700 94
2004-01-22 08:52:10 51°25.326 2°48.926 3.7 218 4.3 101700 94
2004-01-22 08:52:16 51°25.347 2°48.919 3.8 223 4.3 101700 94
2004-01-22 08:52:20 51°25.362 2°48.913 3.5 220 4.2 101710 94
2004-01-22 08:52:26 51°25.383 2°48.906 3.7 220 4.2 101710 94
2004-01-22 08:52:31 51°25.401 2°48.9 4.1 221 4.2 101710 94
2004-01-22 08:52:36 51°25.419 2°48.895 2.8 234 4.2 101710 94
2004-01-22 08:52:40 51°25.434 2°48.889 3.1 221 4.2 101710 94
2004-01-22 08:52:46 51°25.455 2°48.883 2.3 233 4.2 101710 94
2004-01-22 08:52:50 51°25.47 2°48.877 1.9 267 4.2 101710 94
2004-01-22 08:52:56 51°25.491 2°48.87 3.5 217 4.2 101710 94
2004-01-22 08:53:01 51°25.509 2°48.863 2.6 212 4.2 101700 94
2004-01-22 08:53:06 51°25.527 2°48.859 4.3 222 4.2 101700 94
2004-01-22 08:53:08 51°25.534 2°48.856 2.7 226 4.2 101700 94
2004-01-22 08:53:16 51°25.563 2°48.846 3 208 4.2 101700 94
2004-01-22 08:53:20 51°25.577 2°48.842 1.9 230 4.3 101700 94
2004-01-22 08:53:26 51°25.598 2°48.833 2.3 229 4.3 101700 94
2004-01-22 08:53:30 51°25.612 2°48.827 4.7 230 4.3 101700 94
2004-01-22 08:53:36 51°25.634 2°48.817 3 236 4.3 101700 94
2004-01-22 08:53:40 51°25.648 2°48.811 3.1 258 4.3 101700 94
2004-01-22 08:53:46 51°25.669 2°48.799 2.3 258 4.3 101700 94
2004-01-22 08:53:51 51°25.686 2°48.791 3.8 240 4.3 101700 94
2004-01-22 08:53:56 51°25.703 2°48.782 3.8 234 4.3 101700 94
2004-01-22 08:54:00 51°25.716 2°48.774 3.5 237 4.3 101710 94
2004-01-22 08:54:06 51°25.736 2°48.764 4.5 241 4.3 101710 94
2004-01-22 08:54:10 51°25.749 2°48.757 4.8 235 4.4 101710 94
2004-01-22 08:54:16 51°25.767 2°48.746 6.1 233 4.4 101710 94
2004-01-22 08:54:20 51°25.779 2°48.738 4.3 232 4.4 101720 94
2004-01-22 08:54:26 51°25.797 2°48.726 5.4 245 4.4 101720 94
2004-01-22 08:54:31 51°25.812 2°48.716 6.8 220 4.4 101720 94
2004-01-22 08:54:36 51°25.826 2°48.706 3 257 4.4 101720 94
2004-01-22 08:54:40 51°25.837 2°48.698 6.1 236 4.3 101720 94
2004-01-22 08:54:46 51°25.852 2°48.684 5.6 239 4.3 101720 94
2004-01-22 08:54:50 51°25.862 2°48.675 6.9 236 4.4 101720 94
2004-01-22 08:54:56 51°25.876 2°48.661 5.3 248 4.4 101720 94
2004-01-22 08:55:00 51°25.885 2°48.651 7.9 230 4.4 101730 94
2004-01-22 08:55:06 51°25.898 2°48.636 7.6 248 4.4 101730 94
2004-01-22 08:55:10 51°25.906 2°48.627 6.5 252 4.4 101770 94
2004-01-22 08:55:16 51°25.918 2°48.611 6.8 244 4.4 101770 94
2004-01-22 08:55:20 51°25.925 2°48.602 8.2 242 4.4 101730 94
2004-01-22 08:55:26 51°25.935 2°48.587 7.1 244 4.4 101730 94
2004-01-22 08:55:31 51°25.942 2°48.575 6.8 245 4.4 101730 94
2004-01-22 08:55:36 51°25.949 2°48.563 7.3 249 4.4 101730 94
2004-01-22 08:55:40 51°25.954 2°48.554 7.5 249 4.4 101760 94
2004-01-22 08:55:46 51°25.961 2°48.539 6.7 248 4.4 101760 94
2004-01-22 08:55:50 51°25.965 2°48.53 6.3 255 4.4 101760 94
2004-01-22 08:55:56 51°25.971 2°48.516 5.4 253 4.4 101760 94
2004-01-22 08:56:00 51°25.975 2°48.508 7.9 244 4.3 101750 94
2004-01-22 08:56:06 51°25.982 2°48.496 8.7 245 4.3 101750 94
2004-01-22 08:56:10 51°25.986 2°48.488 10 239 4.3 101750 94
2004-01-22 08:56:16 51°25.991 2°48.478 9.2 243 4.3 101750 94
2004-01-22 08:56:20 51°25.994 2°48.471 10 232 4.4 101730 94
2004-01-22 08:56:26 51°25.999 2°48.463 10 226 4.4 101730 94
2004-01-22 08:56:30 51°26.001 2°48.458 8.4 226 4.4 101730 94
2004-01-22 08:56:36 51°26.004 2°48.452 9.5 214 4.4 101730 94
2004-01-22 08:56:40 51°26.007 2°48.45 7.7 211 4.4 101750 94
2004-01-22 08:56:46 51°26.009 2°48.445 7.9 196 4.4 101750 94
2004-01-22 08:56:50 51°26.01 2°48.443 8.5 200 4.3 101730 94
2004-01-22 08:56:56 51°26.012 2°48.44 6.1 193 4.3 101730 94
2004-01-22 08:57:00 51°26.013 2°48.438 5.6 188 4.4 101730 94
2004-01-22 08:57:06 51°26.013 2°48.436 6.3 181 4.4 101730 94
2004-01-22 08:57:11 51°26.013 2°48.434 6.1 182 4.4 101730 94
2004-01-22 08:57:16 51°26.013 2°48.432 8.3 183 4.4 101730 94
2004-01-22 08:57:20 51°26.013 2°48.43 10.5 177 4.5 101730 94
2004-01-22 08:57:26 51°26.012 2°48.427 10.4 173 4.5 101730 94
2004-01-22 08:57:30 51°26.012 2°48.426 10.8 174 4.5 101730 94
2004-01-22 08:57:36 51°26.012 2°48.423 9.9 166 4.5 101730 94
2004-01-22 08:57:40 51°26.012 2°48.422 10.5 163 4.5 101730 94
2004-01-22 08:57:46 51°26.013 2°48.42 12 159 4.5 101730 94
2004-01-22 08:57:51 51°26.013 2°48.419 12 158 4.4 101740 94
2004-01-22 08:57:56 51°26.014 2°48.418 11.1 150 4.4 101740 94
2004-01-22 08:58:00 51°26.014 2°48.418 11.1 148 4.4 101750 94
2004-01-22 08:58:06 51°26.015 2°48.417 9.9 141 4.4 101750 94
2004-01-22 08:58:10 51°26.016 2°48.417 10.3 142 4.4 101740 94
2004-01-22 08:58:16 51°26.017 2°48.418 10.3 134 4.4 101740 94
2004-01-22 08:58:20 51°26.018 2°48.418 10.8 136 4.4 101740 94
2004-01-22 08:58:26 51°26.019 2°48.418 10.7 134 4.4 101740 94
2004-01-22 08:58:30 51°26.019 2°48.418 11.7 133 4.4 101730 94
2004-01-22 08:58:36 51°26.019 2°48.418 11.3 132 4.4 101730 94
2004-01-22 08:58:40 51°26.019 2°48.418 11.9 133 4.4 101730 94
2004-01-22 08:58:46 51°26.019 2°48.418 11 131 4.4 101730 94
2004-01-22 08:58:51 51°26.019 2°48.418 10.7 129 4.4 101730 94
2004-01-22 08:58:56 51°26.019 2°48.418 10.7 125 4.4 101730 94
2004-01-22 08:59:00 51°26.019 2°48.418 10.4 125 4.4 101720 94
2004-01-22 08:59:06 51°26.019 2°48.418 9.7 130 4.4 101720 94
2004-01-22 08:59:11 51°26.019 2°48.418 9 126 4.4 101720 94
2004-01-22 08:59:16 51°26.019 2°48.419 9 126 4.4 101720 94
2004-01-22 08:59:20 51°26.019 2°48.419 8.9 126 4.4 101730 94
2004-01-22 08:59:26 51°26.019 2°48.42 9.7 128 4.4 101730 94
2004-01-22 08:59:30 51°26.019 2°48.42 9.9 123 4.4 101730 94
2004-01-22 08:59:36 51°26.019 2°48.421 9.2 121 4.4 101730 94
2004-01-22 08:59:40 51°26.019 2°48.422 8.6 117 4.4 101730 94
2004-01-22 08:59:46 51°26.019 2°48.423 10.4 114 4.4 101730 94
2004-01-22 08:59:50 51°26.019 2°48.424 10.8 115 4.4 101730 94
2004-01-22 08:59:56 51°26.019 2°48.425 9.9 119 4.4 101730 94
2004-01-22 09:00:00 51°26.019 2°48.426 9.3 123 4.4 101730 94
2004-01-22 09:00:06 51°26.018 2°48.427 10.6 120 4.4 101730 94
2004-01-22 09:00:10 51°26.018 2°48.428 10.3 118 4.4 101740 94
2004-01-22 09:00:16 51°26.018 2°48.429 8.9 122 4.4 101740 94
2004-01-22 09:00:20 51°26.017 2°48.431 9.6 116 4.5 101740 94
2004-01-22 09:00:26 51°26.017 2°48.432 9.4 108 4.5 101740 94
2004-01-22 09:00:30 51°26.016 2°48.433 11 112 4.5 101730 94
2004-01-22 09:00:36 51°26.016 2°48.435 10.3 112 4.5 101730 94
2004-01-22 09:00:40 51°26.016 2°48.436 10.2 107 4.5 101730 94
2004-01-22 09:00:46 51°26.015 2°48.437 11.5 105 4.5 101730 94
2004-01-22 09:00:50 51°26.014 2°48.438 10.5 108 4.5 101740 94
2004-01-22 09:00:56 51°26.014 2°48.44 11.8 106 4.5 101740 94
2004-01-22 09:01:00 51°26.013 2°48.441 11.7 106 4.5 101730 94
2004-01-22 09:01:06 51°26.013 2°48.443 11.4 105 4.5 101730 94
2004-01-22 09:01:10 51°26.012 2°48.444 10.7 113 4.5 101730 94
2004-01-22 09:01:16 51°26.012 2°48.445 11.1 108 4.5 101730 94
2004-01-22 09:01:20 51°26.011 2°48.446 10.8 105 4.5 101730 94
2004-01-22 09:01:26 51°26.01 2°48.448 10.8 104 4.5 101730 94
2004-01-22 09:01:30 51°26.01 2°48.45 11.6 105 4.5 101730 94
2004-01-22 09:01:36 51°26.009 2°48.451 12.5 107 4.5 101730 94
2004-01-22 09:01:40 51°26.008 2°48.453 12.1 106 4.5 101730 94
2004-01-22 09:01:46 51°26.007 2°48.454 11.3 106 4.5 101730 94
2004-01-22 09:01:51 51°26.007 2°48.456 11.5 104 4.4 101730 94
2004-01-22 09:01:56 51°26.006 2°48.457 10.7 97 4.4 101730 94
2004-01-22 09:02:00 51°26.005 2°48.459 11 102 4.4 101750 94
2004-01-22 09:02:06 51°26.004 2°48.46 11.1 100 4.4 101750 94
2004-01-22 09:02:11 51°26.003 2°48.462 10.3 96 4.5 101730 94
2004-01-22 09:02:16 51°26.002 2°48.463 11.4 93 4.5 101730 94
2004-01-22 09:02:20 51°26.001 2°48.464 10.8 101 4.5 101730 94
2004-01-22 09:02:26 51°26 2°48.466 12.2 98 4.5 101730 94
2004-01-22 09:02:30 51°26 2°48.467 11.2 96 4.5 101730 94
2004-01-22 09:02:36 51°25.998 2°48.469 10.6 95 4.5 101730 94
2004-01-22 09:02:40 51°25.997 2°48.47 11.6 91 4.5 101730 94
2004-01-22 09:02:46 51°25.996 2°48.472 12.5 88 4.5 101730 94
2004-01-22 09:02:50 51°25.995 2°48.473 11.8 90 4.5 101720 94
2004-01-22 09:02:56 51°25.994 2°48.475 11 95 4.5 101720 94
2004-01-22 09:03:00 51°25.993 2°48.476 10.7 91 4.5 101720 94
2004-01-22 09:03:06 51°25.992 2°48.478 11.3 92 4.5 101720 94
2004-01-22 09:03:10 51°25.99 2°48.479 10.8 91 4.5 101720 94
2004-01-22 09:03:16 51°25.989 2°48.481 11.7 88 4.5 101720 94
2004-01-22 09:03:20 51°25.988 2°48.482 13.3 89 4.5 101720 94
2004-01-22 09:03:26 51°25.987 2°48.483 12 92 4.5 101720 94
2004-01-22 09:03:31 51°25.986 2°48.485 12.1 87 4.5 101720 94
2004-01-22 09:03:36 51°25.985 2°48.486 13.4 88 4.5 101720 94
2004-01-22 09:03:40 51°25.984 2°48.487 12.7 90 4.5 101720 94
2004-01-22 09:03:46 51°25.983 2°48.488 12.8 97 4.5 101720 94
2004-01-22 09:03:50 51°25.982 2°48.489 12.6 95 4.4 101720 94
2004-01-22 09:03:56 51°25.982 2°48.49 11.2 95 4.4 101720 94
2004-01-22 09:04:00 51°25.981 2°48.491 11 99 4.4 101730 94
2004-01-22 09:04:06 51°25.98 2°48.492 11.3 99 4.4 101730 94
2004-01-22 09:04:10 51°25.979 2°48.493 10.7 92 4.5 101720 94
2004-01-22 09:04:16 51°25.978 2°48.494 11.4 97 4.5 101720 94
2004-01-22 09:04:20 51°25.977 2°48.495 10.7 97 4.5 101720 94
2004-01-22 09:04:26 51°25.976 2°48.496 10.8 100 4.5 101720 94
2004-01-22 09:04:30 51°25.975 2°48.497 12.4 86 4.5 101720 94
2004-01-22 09:04:36 51°25.974 2°48.498 10.9 95 4.5 101720 94
2004-01-22 09:04:40 51°25.973 2°48.499 11.7 89 4.5 101720 94
2004-01-22 09:04:46 51°25.972 2°48.499 11.5 94 4.5 101720 94
2004-01-22 09:04:50 51°25.971 2°48.5 12.2 91 4.6 101720 94
2004-01-22 09:04:56 51°25.97 2°48.501 11.2 85 4.6 101720 94
2004-01-22 09:05:00 51°25.969 2°48.502 11.9 87 4.6 101720 94
2004-01-22 09:05:06 51°25.968 2°48.503 10.8 91 4.6 101720 94
2004-01-22 09:05:11 51°25.967 2°48.504 9.8 89 4.6 101720 94
2004-01-22 09:05:16 51°25.966 2°48.504 11.7 104 4.6 101720 94
2004-01-22 09:05:20 51°25.965 2°48.505 13.5 96 4.6 101730 94
2004-01-22 09:05:26 51°25.964 2°48.506 13.3 88 4.6 101730 94
2004-01-22 09:05:31 51°25.963 2°48.507 12.9 91 4.6 101720 94
2004-01-22 09:05:36 51°25.962 2°48.509 12.4 96 4.6 101720 94
2004-01-22 09:05:40 51°25.962 2°48.51 10.8 97 4.6 101730 94
2004-01-22 09:05:46 51°25.961 2°48.511 12.3 91 4.6 101730 94
2004-01-22 09:05:50 51°25.96 2°48.512 11.9 95 4.6 101720 94
2004-01-22 09:05:56 51°25.958 2°48.513 13.4 90 4.6 101720 94
2004-01-22 09:06:00 51°25.958 2°48.514 12.9 91 4.6 101710 94
2004-01-22 09:06:06 51°25.956 2°48.515 12.6 95 4.6 101710 94
2004-01-22 09:06:10 51°25.956 2°48.516 12.2 100 4.5 101720 94
2004-01-22 09:06:16 51°25.955 2°48.517 11.6 100 4.5 101720 94
2004-01-22 09:06:20 51°25.954 2°48.518 12.4 99 4.5 101720 94
2004-01-22 09:06:26 51°25.953 2°48.519 12.2 98 4.5 101720 94
2004-01-22 09:06:31 51°25.952 2°48.52 12.2 94 4.5 101740 94
2004-01-22 09:06:36 51°25.951 2°48.521 11.2 101 4.5 101740 94
2004-01-22 09:06:40 51°25.95 2°48.522 10.9 97 4.5 101720 94
2004-01-22 09:06:46 51°25.95 2°48.523 10.7 99 4.5 101720 94
2004-01-22 09:06:50 51°25.949 2°48.524 10.9 99 4.5 101720 94
2004-01-22 09:06:56 51°25.948 2°48.526 11.9 103 4.5 101720 94
2004-01-22 09:07:00 51°25.948 2°48.526 11.4 95 4.5 101720 94
2004-01-22 09:07:06 51°25.947 2°48.527 12.5 105 4.5 101720 94
2004-01-22 09:07:10 51°25.946 2°48.528 12.5 104 4.5 101720 94
2004-01-22 09:07:16 51°25.945 2°48.529 11.1 97 4.5 101720 94
2004-01-22 09:07:20 51°25.945 2°48.53 11.1 110 4.5 101730 94
2004-01-22 09:07:26 51°25.944 2°48.532 12.3 103 4.5 101730 94
2004-01-22 09:07:30 51°25.944 2°48.532 12.2 103 4.5 101720 94
2004-01-22 09:07:36 51°25.943 2°48.534 12.3 108 4.5 101720 94
2004-01-22 09:07:40 51°25.943 2°48.534 12.4 111 4.5 101730 94
2004-01-22 09:07:44 51°25.943 2°48.536 11.6 105 4.5 101730 94
2004-01-22 09:07:50 51°25.942 2°48.537 11.7 104 4.5 101710 94
2004-01-22 09:07:56 51°25.941 2°48.538 10.9 106 4.5 101710 94
2004-01-22 09:08:00 51°25.941 2°48.539 11.3 105 4.5 101720 94
2004-01-22 09:08:06 51°25.941 2°48.54 10.9 102 4.5 101720 94
2004-01-22 09:08:10 51°25.94 2°48.541 11.2 102 4.5 101720 94
2004-01-22 09:08:16 51°25.94 2°48.542 11.7 99 4.5 101720 94
2004-01-22 09:08:20 51°25.939 2°48.543 12.4 107 4.5 101720 94
2004-01-22 09:08:26 51°25.939 2°48.544 12.5 107 4.5 101720 94
2004-01-22 09:08:30 51°25.938 2°48.545 12.3 110 4.5 101720 94
2004-01-22 09:08:36 51°25.938 2°48.546 11.4 113 4.5 101720 94
2004-01-22 09:08:40 51°25.938 2°48.547 11.9 110 4.5 101720 94
2004-01-22 09:08:46 51°25.937 2°48.549 10.8 112 4.5 101720 94
2004-01-22 09:08:50 51°25.937 2°48.55 11.2 114 4.5 101720 94
2004-01-22 09:08:56 51°25.937 2°48.552 11.7 122 4.5 101720 94
2004-01-22 09:09:00 51°25.937 2°48.554 11 123 4.5 101720 94
2004-01-22 09:09:06 51°25.938 2°48.557 11.5 124 4.5 101720 94
2004-01-22 09:09:11 51°25.938 2°48.559 11.2 123 4.5 101740 94
2004-01-22 09:09:16 51°25.939 2°48.562 12.1 132 4.5 101740 94
2004-01-22 09:09:20 51°25.939 2°48.564 11.8 132 4.5 101740 94
2004-01-22 09:09:26 51°25.941 2°48.567 11.4 131 4.5 101740 94
2004-01-22 09:09:30 51°25.941 2°48.568 11.2 136 4.5 101710 94
2004-01-22 09:09:36 51°25.943 2°48.571 10.3 132 4.5 101710 94
2004-01-22 09:09:40 51°25.944 2°48.573 10.9 140 4.4 101720 94
2004-01-22 09:09:46 51°25.947 2°48.575 9.8 139 4.4 101720 94
2004-01-22 09:09:50 51°25.948 2°48.577 9.6 146 4.4 101720 94
2004-01-22 09:09:56 51°25.95 2°48.579 9.5 150 4.4 101720 94
2004-01-22 09:10:00 51°25.952 2°48.58 9.4 154 4.4 101720 94
2004-01-22 09:10:06 51°25.955 2°48.581 10.7 166 4.4 101720 94
2004-01-22 09:10:10 51°25.957 2°48.582 9.5 165 4.4 101730 94
2004-01-22 09:10:16 51°25.96 2°48.582 9.1 165 4.4 101730 94
2004-01-22 09:10:20 51°25.962 2°48.582 8.9 181 4.5 101730 94
2004-01-22 09:10:26 51°25.966 2°48.582 8.3 181 4.5 101730 94
2004-01-22 09:10:31 51°25.969 2°48.581 5.9 185 4.5 101730 94
2004-01-22 09:10:36 51°25.971 2°48.579 6.3 190 4.5 101730 94
2004-01-22 09:10:40 51°25.974 2°48.578 7.6 185 4.5 101740 94
2004-01-22 09:10:46 51°25.977 2°48.576 9.5 202 4.5 101740 94
2004-01-22 09:10:50 51°25.979 2°48.574 9.1 208 4.5 101740 94
2004-01-22 09:10:56 51°25.982 2°48.57 10.1 207 4.5 101740 94
2004-01-22 09:11:00 51°25.984 2°48.569 10 209 4.5 101760 94
2004-01-22 09:11:04 51°25.986 2°48.566 10 209 4.5 101760 94
2004-01-22 09:11:10 51°25.989 2°48.563 9 212 4.5 101740 94
2004-01-22 09:11:16 51°25.992 2°48.559 9.7 212 4.5 101740 94
2004-01-22 09:11:21 51°25.995 2°48.556 8.5 205 4.4 101740 94
2004-01-22 09:11:26 51°25.997 2°48.553 10.5 209 4.4 101740 94
2004-01-22 09:11:30 51°25.999 2°48.551 9.9 212 4.4 101740 94
2004-01-22 09:11:36 51°26.002 2°48.547 9.8 216 4.4 101740 94
2004-01-22 09:11:40 51°26.004 2°48.545 9.2 211 4.5 101740 94
2004-01-22 09:11:44 51°26.006 2°48.542 8.1 206 4.5 101740 94
2004-01-22 09:11:50 51°26.008 2°48.539 8.6 202 4.4 101740 94
2004-01-22 09:11:56 51°26.012 2°48.535 9 199 4.4 101740 94
2004-01-22 09:12:00 51°26.014 2°48.534 8.3 197 4.4 101730 94
2004-01-22 09:12:06 51°26.018 2°48.531 5.9 181 4.4 101730 94
2004-01-22 09:12:10 51°26.021 2°48.53 6.7 174 4.5 101730 94
2004-01-22 09:12:16 51°26.026 2°48.53 10.3 165 4.5 101730 94
2004-01-22 09:12:20 51°26.029 2°48.53 10 156 4.5 101730 94